Terminal Aerodrome Forecast
Issued by NWS

Home | Current Version | Previous Version | Text Only | Print | Product List | Glossary On
Versions: 1 2 3 4 5 6 7 8 9 10 11 12 13 14
000
FTUS43 KPAH 282300
TAFCGI
TAF
KCGI 282330Z 2900/2924 19011KT P6SM SCT150
     FM290300 17007KT P6SM SCT030 WS020/22045KT
     FM290900 19009G15KT P6SM BKN020 WS020/22050KT
     FM291500 20015G22KT 5SM -DZ BR BKN012=

USA.gov is the U.S. government's official web portal to all federal, state and local government web resources and services.